• In Italy
  • List of Countries
  • For 7 days
  • Water Temperature
  • Satellite Maps
  • Weather Map
  • Weather Widgets
  • user-avatar
    Login

    Hourly Weather Goa

    Today, 24 November, Friday

    Time Temperature Precipitation Wind Pressure Humidity
    00:00 +26°C° 0 mm 2 mps 753 mmHg 67%
    01:00 +26°C° 0 mm 2 mps 753 mmHg 67%
    02:00 +26°C° 0 mm 2 mps 753 mmHg 67%
    03:00 +26°C° 0 mm 2 mps 753 mmHg 67%
    04:00 +26°C° 0 mm 2 mps 753 mmHg 66%
    05:00 +26°C° 0 mm 2 mps 753 mmHg 67%
    06:00 +27°C° 0 mm 2 mps 753 mmHg 65%
    07:00 +28°C° 0 mm 2 mps 754 mmHg 62%
    08:00 +29°C° 0 mm 2 mps 754 mmHg 59%
    09:00 +32°C° 0 mm 2 mps 754 mmHg 51%
    10:00 +35°C° 0 mm 1 mps 754 mmHg 44%
    11:00 +39°C° 0 mm 1 mps 754 mmHg 36%
    12:00 +38°C° 0 mm 2 mps 754 mmHg 37%
    13:00 +38°C° 0 mm 2 mps 753 mmHg 37%
    14:00 +37°C° 0 mm 3 mps 752 mmHg 38%
    15:00 +35°C° 0 mm 3 mps 752 mmHg 47%
    16:00 +34°C° 0 mm 4 mps 752 mmHg 56%
    17:00 +32°C° 0 mm 4 mps 752 mmHg 65%
    18:00 +29°C° 0 mm 4 mps 753 mmHg 69%
    19:00 +28°C° 0 mm 5 mps 753 mmHg 72%
    20:00 +27°C° 0 mm 5 mps 753 mmHg 75%
    21:00 +27°C° 0 mm 5 mps 753 mmHg 73%
    22:00 +26°C° 0 mm 5 mps 754 mmHg 70%
    23:00 +26°C° 0 mm 6 mps 754 mmHg 68%

    Tomorrow, 25 November, Saturday

    Time Temperature Precipitation Wind Pressure Humidity
    00:00 +26°C° 0 mm 6 mps 753 mmHg 66%
    01:00 +26°C° 0 mm 6 mps 753 mmHg 64%
    02:00 +26°C° 0 mm 6 mps 753 mmHg 62%
    03:00 +24°C° 0 mm 6 mps 753 mmHg 60%
    04:00 +24°C° 0 mm 6 mps 753 mmHg 58%
    05:00 +24°C° 0 mm 6 mps 753 mmHg 56%
    06:00 +26°C° 0 mm 5 mps 753 mmHg 54%
    07:00 +27°C° 0 mm 5 mps 754 mmHg 52%
    08:00 +29°C° 0 mm 5 mps 754 mmHg 50%
    09:00 +32°C° 0 mm 5 mps 754 mmHg 45%
    10:00 +35°C° 0 mm 4 mps 754 mmHg 39%
    11:00 +38°C° 0 mm 4 mps 754 mmHg 34%
    12:00 +38°C° 0 mm 4 mps 754 mmHg 34%
    13:00 +38°C° 0 mm 4 mps 753 mmHg 34%
    14:00 +40°C° 0 mm 4 mps 752 mmHg 34%
    15:00 +37°C° 0 mm 4 mps 752 mmHg 43%
    16:00 +34°C° 0 mm 4 mps 752 mmHg 52%
    17:00 +32°C° 0 mm 5 mps 752 mmHg 60%
    18:00 +30°C° 0 mm 5 mps 753 mmHg 63%
    19:00 +29°C° 0 mm 4 mps 753 mmHg 66%
    20:00 +28°C° 0 mm 4 mps 754 mmHg 69%
    21:00 +27°C° 0 mm 4 mps 754 mmHg 67%
    22:00 +27°C° 0 mm 4 mps 754 mmHg 66%
    23:00 +27°C° 0 mm 4 mps 754 mmHg 64%

    Day after tomorrow, 26 November, Sunday

    Time Temperature Precipitation Wind Pressure Humidity
    00:00 +26°C° 0 mm 4 mps 754 mmHg 63%
    01:00 +26°C° 0 mm 3 mps 753 mmHg 62%
    02:00 +26°C° 0 mm 3 mps 753 mmHg 61%
    03:00 +25°C° 0 mm 3 mps 753 mmHg 61%
    04:00 +25°C° 0 mm 3 mps 753 mmHg 60%
    05:00 +25°C° 0 mm 3 mps 753 mmHg 59%
    06:00 +26°C° 0 mm 3 mps 753 mmHg 58%
    07:00 +26°C° 0 mm 4 mps 754 mmHg 57%
    08:00 +27°C° 0 mm 4 mps 754 mmHg 57%
    09:00 +29°C° 0 mm 4 mps 755 mmHg 53%
    10:00 +32°C° 0 mm 4 mps 755 mmHg 48%
    11:00 +34°C° 0 mm 3 mps 755 mmHg 44%
    12:00 +35°C° 0 mm 3 mps 754 mmHg 41%
    13:00 +36°C° 0 mm 2 mps 753 mmHg 37%
    14:00 +37°C° 0 mm 2 mps 752 mmHg 34%
    15:00 +35°C° 0 mm 2 mps 752 mmHg 41%
    16:00 +33°C° 0 mm 3 mps 752 mmHg 49%
    17:00 +31°C° 0 mm 3 mps 752 mmHg 56%
    18:00 +29°C° 0 mm 3 mps 753 mmHg 58%
    19:00 +28°C° 0 mm 3 mps 753 mmHg 61%
    20:00 +27°C° 0 mm 3 mps 754 mmHg 64%
    21:00 +27°C° 0 mm 3 mps 754 mmHg 61%
    22:00 +26°C° 0 mm 3 mps 754 mmHg 59%
    23:00 +25°C° 0 mm 3 mps 754 mmHg 57%

    27 November, Monday

    Time Temperature Precipitation Wind Pressure Humidity
    00:00 +25°C° 0 mm 3 mps 753 mmHg 55%
    01:00 +25°C° 0 mm 4 mps 753 mmHg 54%
    02:00 +25°C° 0 mm 4 mps 753 mmHg 53%
    03:00 +25°C° 0 mm 4 mps 752 mmHg 53%
    04:00 +25°C° 0 mm 4 mps 752 mmHg 54%
    05:00 +23°C° 0 mm 4 mps 752 mmHg 55%
    06:00 +26°C° 0 mm 4 mps 753 mmHg 56%
    07:00 +27°C° 0 mm 4 mps 753 mmHg 58%
    08:00 +28°C° 0 mm 3 mps 754 mmHg 59%
    09:00 +31°C° 0 mm 3 mps 754 mmHg 52%
    10:00 +34°C° 0 mm 3 mps 754 mmHg 45%
    11:00 +37°C° 0 mm 2 mps 754 mmHg 39%
    12:00 +37°C° 0 mm 2 mps 753 mmHg 37%
    13:00 +38°C° 0 mm 3 mps 752 mmHg 36%
    14:00 +39°C° 0 mm 3 mps 751 mmHg 35%
    15:00 +37°C° 0 mm 4 mps 751 mmHg 42%
    16:00 +35°C° 0 mm 4 mps 751 mmHg 49%
    17:00 +33°C° 0 mm 5 mps 751 mmHg 56%
    18:00 +32°C° 0 mm 5 mps 751 mmHg 60%
    19:00 +29°C° 0 mm 5 mps 752 mmHg 64%
    20:00 +28°C° 0 mm 4 mps 752 mmHg 68%
    21:00 +28°C° 0 mm 4 mps 752 mmHg 69%
    22:00 +27°C° 0 mm 4 mps 752 mmHg 69%
    23:00 +27°C° 0 mm 4 mps 752 mmHg 70%

    28 November, Tuesday

    Time Temperature Precipitation Wind Pressure Humidity
    00:00 +27°C° 0 mm 4 mps 752 mmHg 70%
    01:00 +27°C° 0 mm 4 mps 751 mmHg 71%
    02:00 +27°C° 0 mm 4 mps 751 mmHg 71%
    03:00 +27°C° 0 mm 3 mps 751 mmHg 72%
    04:00 +26°C° 0 mm 3 mps 751 mmHg 73%
    05:00 +26°C° 0 mm 3 mps 751 mmHg 73%
    06:00 +27°C° 0 mm 3 mps 752 mmHg 71%
    07:00 +28°C° 0 mm 3 mps 752 mmHg 69%
    08:00 +29°C° 0 mm 3 mps 753 mmHg 67%
    09:00 +31°C° 0 mm 3 mps 753 mmHg 59%
    10:00 +34°C° 0 mm 3 mps 753 mmHg 51%
    11:00 +36°C° 0 mm 3 mps 753 mmHg 43%
    12:00 +37°C° 0 mm 2 mps 752 mmHg 41%
    13:00 +38°C° 0 mm 2 mps 751 mmHg 38%
    14:00 +39°C° 0 mm 2 mps 750 mmHg 36%
    15:00 +37°C° 0 mm 3 mps 750 mmHg 44%
    16:00 +35°C° 0 mm 3 mps 750 mmHg 51%
    17:00 +33°C° 0 mm 4 mps 751 mmHg 59%
    18:00 +32°C° 0 mm 4 mps 751 mmHg 63%
    19:00 +30°C° 0 mm 4 mps 752 mmHg 66%
    20:00 +28°C° 0 mm 4 mps 752 mmHg 70%
    21:00 +28°C° 0 mm 4 mps 752 mmHg 68%
    22:00 +28°C° 0 mm 4 mps 752 mmHg 66%
    23:00 +28°C° 0 mm 4 mps 752 mmHg 64%

    29 November, Wednesday

    Time Temperature Precipitation Wind Pressure Humidity
    00:00 +27°C° 0 mm 4 mps 752 mmHg 64%
    01:00 +27°C° 0 mm 4 mps 752 mmHg 64%
    02:00 +26°C° 0 mm 4 mps 751 mmHg 64%
    03:00 +26°C° 0 mm 4 mps 752 mmHg 65%
    04:00 +26°C° 0 mm 3 mps 752 mmHg 66%
    05:00 +26°C° 0 mm 3 mps 752 mmHg 67%
    06:00 +27°C° 0 mm 3 mps 753 mmHg 64%
    07:00 +28°C° 0 mm 4 mps 753 mmHg 62%
    08:00 +29°C° 0 mm 4 mps 754 mmHg 59%
    09:00 +32°C° 0 mm 4 mps 754 mmHg 53%
    10:00 +35°C° 0 mm 3 mps 754 mmHg 46%
    11:00 +37°C° 0 mm 3 mps 754 mmHg 39%
    12:00 +38°C° 0 mm 3 mps 753 mmHg 38%
    13:00 +38°C° 0 mm 3 mps 752 mmHg 36%
    14:00 +39°C° 0 mm 3 mps 751 mmHg 35%
    15:00 +37°C° 0 mm 3 mps 751 mmHg 44%
    16:00 +35°C° 0 mm 3 mps 752 mmHg 53%
    17:00 +33°C° 0 mm 4 mps 752 mmHg 62%
    18:00 +30°C° 0 mm 3 mps 752 mmHg 68%
    19:00 +29°C° 0 mm 2 mps 753 mmHg 74%
    20:00 +27°C° 0 mm 2 mps 753 mmHg 81%
    21:00 +27°C° 0 mm 2 mps 753 mmHg 81%
    22:00 +27°C° 0 mm 1 mps 753 mmHg 81%
    23:00 +26°C° 0 mm 1 mps 753 mmHg 82%
    Show more